Location: Dana
(41.8364°N, 106.7042°W)
Time: 12:35:48
(UTC+00:00)

A-11 Canister half - Visible Passes

Search period start: 13 May 2026 00:00
Search period end: 23 May 2026 00:00
Orbit: 1515 x 1684 km, 47.2° (Epoch: 12 May)

Date Brightness Start Highest point End Pass type
(mag) Time Alt. Az. Time Alt. Az. Time Alt. Az.
13 May 9.0 04:25:08 10° SW 04:34:13 54° SE 04:43:07 10° ENE visible
13 May 9.0 06:29:32 10° WSW 06:38:56 75° NNW 06:48:12 10° ENE visible
13 May 9.3 08:35:24 10° WNW 08:44:37 64° N 08:53:51 10° E visible
13 May 8.9 10:40:40 10° WNW 10:49:55 80° SSW 10:59:17 10° SE visible
14 May 9.0 04:02:12 10° SSW 04:11:13 51° SE 04:20:03 10° ENE visible
14 May 9.0 06:06:26 10° WSW 06:15:52 77° NNW 06:25:09 10° ENE visible
14 May 9.3 08:12:19 10° WNW 08:21:32 64° N 08:30:45 10° E visible
14 May 8.9 10:17:37 10° WNW 10:26:53 83° SSW 10:36:15 10° ESE visible
15 May 9.1 03:39:17 10° SSW 03:48:14 48° SE 03:56:59 10° ENE visible
15 May 9.0 05:43:21 10° WSW 05:52:48 79° NNW 06:02:06 10° ENE visible
15 May 9.3 07:49:13 10° WNW 07:58:27 63° N 08:07:39 10° E visible
15 May 8.9 09:54:34 10° WNW 10:03:51 86° SSW 10:13:13 10° ESE visible
16 May 9.2 03:16:23 10° SSW 03:25:15 45° SE 03:33:54 10° ENE visible
16 May 9.0 05:20:16 10° WSW 05:29:45 81° NNW 05:39:02 10° ENE visible
16 May 9.3 07:26:08 10° WNW 07:35:22 63° N 07:44:33 10° E visible
16 May 8.9 09:31:31 10° WNW 09:40:50 89° SSW 09:50:11 10° ESE visible
17 May 9.3 02:53:29 10° SSW 03:02:17 43° SE 03:10:50 10° ENE visible
17 May 9.0 04:57:11 10° WSW 05:06:41 84° NNW 05:16:01 10° ENE visible
17 May 9.3 07:03:01 10° W 07:12:16 63° N 07:21:27 10° E visible
17 May 8.9 09:08:28 10° WNW 09:17:47 88° NNE 09:27:07 10° ESE visible
18 May 9.0 04:34:06 10° WSW 04:43:38 86° NNW 04:52:58 10° ENE visible
18 May 9.3 06:39:55 10° W 06:49:11 63° N 06:58:22 10° E visible
18 May 8.9 08:45:25 10° WNW 08:54:44 85° NNE 09:04:04 10° ESE visible
18 May 9.3 10:50:41 10° WNW 10:59:03 40° SW 11:07:32 10° SSE visible
19 May 9.0 04:11:02 10° WSW 04:20:35 89° NNW 04:29:55 10° ENE visible
19 May 9.3 06:16:47 10° W 06:26:06 63° N 06:35:17 10° E visible
19 May 8.9 08:22:22 10° WNW 08:31:42 83° NNE 08:41:01 10° ESE visible
19 May 9.2 10:27:35 10° WNW 10:36:05 43° SW 10:44:41 10° SSE visible
20 May 9.0 03:47:57 10° WSW 03:57:33 88° SSE 04:06:53 10° ENE visible
20 May 9.3 05:53:41 10° W 06:03:01 63° N 06:12:12 10° ENE visible
20 May 8.9 07:59:18 10° WNW 08:08:39 80° NNE 08:17:57 10° ESE visible
20 May 9.1 10:04:30 10° WNW 10:13:07 46° SW 10:21:48 10° SSE visible
21 May 9.0 03:24:53 10° WSW 03:34:30 85° SSE 03:43:51 10° ENE visible
21 May 9.3 05:30:33 10° W 05:39:55 64° N 05:49:06 10° ENE visible
21 May 9.0 07:36:14 10° WNW 07:45:36 78° NNE 07:54:52 10° ESE visible
21 May 9.0 09:41:25 10° WNW 09:50:08 49° SW 09:58:55 10° SSE visible
22 May 9.0 03:01:49 10° WSW 03:11:28 82° SSE 03:20:49 10° ENE visible
22 May 9.3 05:07:26 10° W 05:16:50 64° N 05:26:03 10° ENE visible
22 May 9.0 07:13:10 10° WNW 07:22:32 76° NNE 07:31:48 10° ESE visible
22 May 9.0 09:18:21 10° WNW 09:27:10 51° SW 09:36:01 10° SSE visible
